Overview Statistics Trail Chart Weather Telemetry Raw packets
 

This is the latest recevied weather packets stored in our database for station/object KW4UJ. If no packets are shown the sender has not sent any weather packets the latest 10 day(s).

<< 1 2 3 4 5 6 7 >>
Time Temp. Humidity Pressure Rain* Wind** Luminosity Snow
1788627213 26.11° C 76% 1012.4 hPa 0 mm - 151 W/m² -
1788626912 26.11° C 74% 1012.4 hPa 0 mm - 191 W/m² -
1788626607 26.11° C 74% 1012.5 hPa 0 mm - 239 W/m² -
1788626303 26.11° C 75% 1012.4 hPa 0 mm - 252 W/m² -
1788625999 26.11° C 75% 1012.3 hPa 0 mm - 259 W/m² -
1788625695 26.11° C 76% 1012.5 hPa 0 mm - 266 W/m² -
1788625395 26.11° C 76% 1012.5 hPa 0 mm - 282 W/m² -
1788625089 25.56° C 75% 1012.6 hPa 0 mm - 257 W/m² -
1788624788 25.56° C 76% 1012.5 hPa 0 mm - 234 W/m² -
1788624487 26.11° C 76% 1012.7 hPa 0 mm - 194 W/m² -
1788624181 26.11° C 74% 1012.7 hPa 0 mm - 187 W/m² -
1788623876 25.56° C 75% 1012.5 hPa 0 mm - 182 W/m² -
1788623575 25.56° C 74% 1012.9 hPa 0 mm - 178 W/m² -
1788623274 25.56° C 76% 1012.9 hPa 0 mm - 168 W/m² -
1788622971 25.56° C 77% 1012.5 hPa 0 mm - 203 W/m² -
1788622666 25.56° C 78% 1012.8 hPa 0 mm - 198 W/m² -
1788622362 25.56° C 79% 1012.8 hPa 0 mm - 184 W/m² -
1788622057 25.56° C 81% 1012.9 hPa 0 mm - 186 W/m² -
1788621757 25.56° C 80% 1012.9 hPa 0 mm - 171 W/m² -
1788621456 25.56° C 81% 1012.9 hPa 0 mm - 207 W/m² -
1788621153 25° C 82% 1012.9 hPa 0 mm - 197 W/m² -
1788620852 25° C 82% 1013.1 hPa 0 mm - 161 W/m² -
1788620551 25° C 82% 1013 hPa 0 mm - 101 W/m² -
1788620249 25° C 82% 1013 hPa 0 mm - 90 W/m² -
1788619944 25.56° C 80% 1013 hPa 0 mm - 103 W/m² -

* Rain latest hour (hover to see other rain measurements)
** Current wind speed in m/s (hover to see current wind gust speed)